W1CLK Weather Reports


time (UTC)temp
C
wind
direction
speed
KPH
gust
KPH
rain 1hr
cm
rain 24hr
cm
rain mn
cm
humidity
%
barometer
mb
20260504110344 5 135 0.0 0.0 0.00 0.00 0.00 74 1015.0
20260504100344 3 0 0.0 0.0 0.00 0.00 0.00 78 1015.0
20260504081846 7 263 9.7 17.7 0.00 0.00 0.00 60 1015.0
20260504081346 7 271 11.3 17.7 0.00 0.00 0.00 59 1015.0
20260504080845 7 273 11.3 16.1 0.00 0.00 0.00 60 1015.0
20260504080344 8 269 14.5 22.5 0.00 0.00 0.00 60 1015.0
20260504070345 5 96 1.6 3.2 0.00 0.00 0.00 72 1015.0
20260504050344 6 266 11.3 14.5 0.00 0.00 0.00 63 1015.0
20260504045845 6 268 8.0 12.9 0.00 0.00 0.00 69 1015.0
20260504045344 5 266 3.2 11.3 0.00 0.00 0.00 72 1015.0
20260504044844 5 67 0.0 1.6 0.00 0.00 0.00 74 1015.0
20260504044344 5 138 0.0 1.6 0.00 0.00 0.00 73 1015.0
20260504043844 5 84 0.0 3.2 0.00 0.00 0.00 73 1015.0
20260504043344 6 0 0.0 0.0 0.00 0.00 0.00 73 1015.0
20260504042844 6 113 0.0 3.2 0.00 0.00 0.00 71 1015.0
20260504042344 6 163 1.6 4.8 0.00 0.00 0.00 70 1015.0
20260504041844 5 196 6.4 12.9 0.00 0.00 0.00 70 1014.0
20260504041348 5 123 1.6 3.2 0.00 0.00 0.00 73 1014.0
20260504040844 5 95 0.0 4.8 0.00 0.00 0.00 76 1014.0
20260504040344 4 61 0.0 3.2 0.00 0.00 0.00 78 1014.0
20260504035844 4 111 0.0 3.2 0.00 0.00 0.00 78 1014.0
20260504035348 4 52 0.0 1.6 0.00 0.00 0.00 79 1014.0
20260504034844 4 67 1.6 3.2 0.00 0.00 0.00 80 1014.0
20260504034344 4 95 3.2 4.8 0.00 0.00 0.00 82 1014.0
20260504033844 4 59 0.0 3.2 0.00 0.00 0.00 83 1014.0
20260504033345 4 0 0.0 0.0 0.00 0.00 0.00 82 1014.0
20260504032844 4 0 0.0 0.0 0.00 0.00 0.00 81 1014.0
20260504032344 4 101 0.0 1.6 0.00 0.00 0.00 81 1014.0
20260504031844 4 77 0.0 1.6 0.00 0.00 0.00 82 1014.0
20260504031344 4 0 0.0 0.0 0.00 0.00 0.00 81 1014.0
20260504030844 5 0 0.0 0.0 0.00 0.00 0.00 81 1014.0
20260504030344 5 226 0.0 1.6 0.00 0.00 0.00 80 1014.0
20260504025844 5 133 0.0 0.0 0.00 0.00 0.00 79 1014.0
20260504025344 5 133 0.0 1.6 0.00 0.00 0.00 79 1014.0
20260504024845 5 147 0.0 1.6 0.00 0.00 0.00 79 1014.0
20260504024344 5 77 0.0 1.6 0.00 0.00 0.00 79 1014.0
20260504023844 5 53 0.0 3.2 0.00 0.00 0.00 78 1014.0
20260504023344 5 69 0.0 0.0 0.00 0.00 0.00 77 1014.0
20260504022844 5 225 1.6 4.8 0.00 0.00 0.00 77 1014.0
20260504022344 5 160 1.6 3.2 0.00 0.00 0.00 76 1014.0
20260504021844 5 227 1.6 3.2 0.00 0.00 0.00 77 1014.0
20260504021345 5 109 0.0 0.0 0.00 0.00 0.00 76 1014.0
20260504020844 6 76 0.0 1.6 0.00 0.00 0.00 75 1014.0
20260504020344 6 64 0.0 1.6 0.00 0.00 0.00 74 1014.0
20260504015844 6 0 0.0 0.0 0.00 0.00 0.00 72 1014.0
20260504015344 6 69 0.0 1.6 0.00 0.00 0.00 71 1014.0
20260504014845 6 0 0.0 0.0 0.00 0.00 0.00 69 1014.0
20260504014344 7 0 0.0 0.0 0.00 0.00 0.00 68 1014.0
20260504013844 7 125 0.0 1.6 0.00 0.00 0.00 68 1014.0
20260504013344 7 1 0.0 1.6 0.00 0.00 0.00 65 1014.0
20260504012844 7 91 0.0 1.6 0.00 0.00 0.00 64 1014.0
20260504012344 8 85 0.0 1.6 0.00 0.00 0.00 63 1014.0
20260504011844 8 98 0.0 1.6 0.00 0.00 0.00 61 1014.0
20260504011344 8 74 0.0 1.6 0.00 0.00 0.00 61 1014.0
20260504010844 9 240 3.2 6.4 0.00 0.00 0.00 58 1014.0
20260504010344 10 150 0.0 3.2 0.00 0.00 0.00 55 1014.0
20260504005844 10 246 8.0 12.9 0.00 0.00 0.00 54 1014.0
20260504005344 10 262 9.7 16.1 0.00 0.00 0.00 52 1014.0
20260504004844 10 259 8.0 11.3 0.00 0.00 0.00 53 1014.0
20260504004344 10 223 3.2 6.4 0.00 0.00 0.00 52 1014.0
20260504003844 11 254 8.0 12.9 0.00 0.00 0.00 50 1014.0
20260504003344 11 263 4.8 9.7 0.00 0.00 0.00 51 1013.0
20260504002844 11 261 8.0 14.5 0.00 0.00 0.00 49 1013.0
20260504002344 11 253 6.4 9.7 0.00 0.00 0.00 48 1013.0
20260504001844 12 256 8.0 9.7 0.00 0.00 0.00 47 1013.0
20260504001345 12 266 9.7 16.1 0.00 0.00 0.00 45 1013.0
20260504000844 12 265 8.0 12.9 0.00 0.00 0.00 44 1013.0
20260504000346 12 224 4.8 6.4 0.00 0.00 0.00 46 1013.0
20260503235844 12 257 6.4 11.3 0.00 0.00 0.00 43 1013.0
20260503235344 12 264 4.8 9.7 0.00 0.00 0.00 43 1013.0
20260503234844 13 268 4.8 8.0 0.00 0.00 0.00 42 1013.0
20260503234344 13 260 4.8 9.7 0.00 0.00 0.00 42 1013.0
20260503233844 13 273 12.9 17.7 0.00 0.00 0.00 41 1013.0
20260503233344 13 217 4.8 8.0 0.00 0.00 0.00 43 1013.0
20260503232844 13 257 8.0 12.9 0.00 0.00 0.00 42 1013.0
20260503232344 13 255 6.4 12.9 0.00 0.00 0.00 42 1013.0
20260503231844 13 258 8.0 14.5 0.00 0.00 0.00 40 1013.0
20260503231344 13 282 14.5 19.3 0.00 0.00 0.00 40 1013.0
20260503230844 13 279 11.3 17.7 0.00 0.00 0.00 41 1013.0
20260503230344 13 276 11.3 17.7 0.00 0.00 0.00 40 1013.0
20260503225844 13 222 8.0 14.5 0.00 0.00 0.00 40 1013.0
20260503225344 14 239 12.9 16.1 0.00 0.00 0.00 39 1013.0
20260503224845 14 215 4.8 12.9 0.00 0.00 0.00 40 1013.0
20260503224344 14 267 14.5 19.3 0.00 0.00 0.00 39 1013.0
20260503223844 14 243 9.7 16.1 0.00 0.00 0.00 40 1013.0
20260503223344 14 216 8.0 19.3 0.00 0.00 0.00 39 1013.0
20260503222844 15 280 8.0 20.9 0.00 0.00 0.00 38 1013.0
20260503222344 15 242 8.0 14.5 0.00 0.00 0.00 38 1013.0
20260503221845 15 235 6.4 17.7 0.00 0.00 0.00 37 1013.0
20260503221344 15 261 11.3 19.3 0.00 0.00 0.00 37 1013.0
20260503220844 15 245 8.0 14.5 0.00 0.00 0.00 38 1013.0
20260503220345 15 241 9.7 14.5 0.00 0.00 0.00 37 1013.0
20260503215844 15 266 8.0 19.3 0.00 0.00 0.00 38 1013.0
20260503215344 15 248 9.7 14.5 0.00 0.00 0.00 38 1013.0
20260503214845 15 265 20.9 30.6 0.00 0.00 0.00 37 1013.0
20260503214344 15 266 17.7 27.4 0.00 0.00 0.00 38 1013.0
20260503213844 15 260 12.9 30.6 0.00 0.00 0.00 37 1013.0
20260503213347 15 256 14.5 20.9 0.00 0.00 0.00 37 1013.0
20260503212844 15 23 4.8 12.9 0.00 0.00 0.00 36 1013.0
20260503212344 15 235 6.4 14.5 0.00 0.00 0.00 37 1013.0
20260503211845 15 251 11.3 19.3 0.00 0.00 0.00 38 1013.0
20260503211344 15 260 17.7 24.1 0.00 0.00 0.00 37 1013.0
20260503210844 15 249 12.9 22.5 0.00 0.00 0.00 38 1013.0
20260503210344 15 242 4.8 11.3 0.00 0.00 0.00 38 1013.0
20260503205844 14 215 8.0 14.5 0.00 0.00 0.00 37 1013.0
20260503205344 14 259 11.3 17.7 0.00 0.00 0.00 37 1013.0
20260503204844 15 250 11.3 24.1 0.00 0.00 0.00 37 1013.0
20260503204344 15 246 8.0 17.7 0.00 0.00 0.00 39 1013.0
20260503203844 15 350 4.8 11.3 0.00 0.00 0.00 39 1013.0
20260503203344 15 198 4.8 12.9 0.00 0.00 0.00 37 1013.0
20260503202844 15 243 6.4 14.5 0.00 0.00 0.00 38 1013.0
20260503202344 15 242 8.0 14.5 0.00 0.00 0.00 40 1013.0
20260503201845 15 247 9.7 20.9 0.00 0.00 0.00 37 1013.0
20260503201344 15 245 6.4 12.9 0.00 0.00 0.00 39 1013.0
20260503200844 14 232 9.7 17.7 0.00 0.00 0.00 39 1013.0
20260503200344 14 266 16.1 22.5 0.00 0.00 0.00 39 1013.0
20260503195844 14 244 8.0 16.1 0.00 0.00 0.00 38 1013.0
20260503195344 14 236 6.4 14.5 0.00 0.00 0.00 41 1013.0
20260503194846 14 228 11.3 24.1 0.00 0.00 0.00 38 1013.0
20260503194344 14 284 8.0 20.9 0.00 0.00 0.00 41 1013.0
20260503193844 14 231 9.7 20.9 0.00 0.00 0.00 41 1013.0
20260503193344 14 243 11.3 17.7 0.00 0.00 0.00 39 1013.0
20260503192844 14 282 6.4 27.4 0.00 0.00 0.00 40 1013.0
20260503191845 13 164 6.4 9.7 0.00 0.00 0.00 42 1013.0
20260503191344 13 214 4.8 9.7 0.00 0.00 0.00 40 1014.0
20260503190844 13 227 6.4 12.9 0.00 0.00 0.00 39 1014.0
20260503190344 13 54 4.8 14.5 0.00 0.00 0.00 40 1014.0
20260503185844 13 212 6.4 9.7 0.00 0.00 0.00 39 1014.0
20260503185345 13 245 6.4 9.7 0.00 0.00 0.00 40 1014.0
20260503184845 13 183 3.2 9.7 0.00 0.00 0.00 40 1014.0
20260503184344 13 266 12.9 30.6 0.00 0.00 0.00 39 1014.0
20260503183845 13 274 11.3 20.9 0.00 0.00 0.00 40 1014.0
20260503183345 13 169 8.0 12.9 0.00 0.00 0.00 39 1014.0
20260503182844 13 261 11.3 20.9 0.00 0.00 0.00 42 1014.0
20260503182344 13 248 9.7 19.3 0.00 0.00 0.00 39 1014.0
20260503181844 12 228 6.4 20.9 0.00 0.00 0.00 39 1014.0
20260503181345 12 245 8.0 14.5 0.00 0.00 0.00 40 1014.0
20260503180844 13 256 8.0 19.3 0.00 0.00 0.00 43 1014.0
20260503180344 13 255 14.5 29.0 0.00 0.00 0.00 40 1014.0
20260503175844 13 253 8.0 16.1 0.00 0.00 0.00 41 1014.0
20260503175344 13 259 11.3 20.9 0.00 0.00 0.00 40 1014.0
20260503174846 13 238 9.7 17.7 0.00 0.00 0.00 42 1014.0
20260503174344 13 191 4.8 11.3 0.00 0.00 0.00 45 1014.0
20260503173845 12 248 9.7 17.7 0.00 0.00 0.00 40 1014.0
20260503173344 12 266 11.3 17.7 0.00 0.00 0.00 41 1014.0
20260503172844 12 193 6.4 9.7 0.00 0.00 0.00 39 1014.0
20260503172344 12 225 6.4 14.5 0.00 0.00 0.00 41 1014.0
20260503171844 12 212 9.7 12.9 0.00 0.00 0.00 40 1014.0
20260503171344 12 258 6.4 16.1 0.00 0.00 0.00 43 1014.0
20260503170844 12 237 12.9 22.5 0.00 0.00 0.00 40 1014.0
20260503170344 12 272 9.7 19.3 0.00 0.00 0.00 41 1014.0
20260503150845 10 264 14.5 30.6 0.00 0.00 0.00 50 1015.0
20260503150344 10 194 6.4 14.5 0.00 0.00 0.00 50 1015.0
20260503131345 8 236 9.7 19.3 0.00 0.00 0.00 58 1015.0
20260503130844 8 198 9.7 17.7 0.00 0.00 0.00 58 1015.0
20260503130345 8 75 8.0 12.9 0.00 0.00 0.00 57 1015.0